Other Public Products
Issued by NWS Grand Forks, ND

Home | Current Version | Previous Version | Text Only | Print | Product List | Glossary On
Versions: 1 2 3 4 5 6 7 8 9 10 11 12 13 14 15 16 17 18 19 20 21 22 23 24 25 26 27 28 29 30 31 32 33 34 35 36 37 38 39 40 41 42 43 44 45 46 47 48 49 50
000
FPUS83 KFGF 020431
OPUFGF
PRAIRIE TO PINES WEATHER ROUNDUP
NATIONAL WEATHER SERVICE EASTERN NORTH DAKOTA/GRAND FORKS ND
1100 PM CDT WED JUL 01 2015

 **SATELLITE DATA USED TO AUGMENT SKY COVER AT AUTOMATED STATIONS**
 *****  WEATHER ACROSS EASTERN NORTH DAKOTA  *****

CITY           SKY/WX    TMP DP  RH WIND       PRES   REMARKS
GRAND FORKS    PTCLDY    66  62  87 S7        29.95R
GRAND FORKS AF PTCLDY    65  62  89 S6        29.95S
GRAND CITY NWS   N/A     66 N/A N/A S9          N/A
BUXTON         NOT AVBL
DEVILS LAKE    PTCLDY    70  61  73 S10       29.94S
FARGO          FAIR      65  56  72 S8        29.98R
WAHPETON ARPT  CLEAR     61  54  77 SE6       29.99S
$$

 *****  WEATHER ACROSS CENTRAL AND WESTERN NORTH DAKOTA  *****

CITY           SKY/WX    TMP DP  RH WIND       PRES   REMARKS
JAMESTOWN      PTCLDY    67  62  84 SE8       29.96R
BISMARCK       MOCLDY    69  65  86 N3        29.97R
MINOT          CLOUDY    68  64  87 CALM      29.96R
MINOT AFB      MOCLDY    66  66 100 CALM      29.95S
GARRISON         N/A     69  66  90 CALM      29.96R
WILLISTON      CLOUDY    71  59  65 NW8       30.00R HAZE
DICKINSON      LGT RAIN  66  62  87 W5        30.00R FOG
HETTINGER      CLOUDY    65  61  87 CALM      30.01F
$$

 *****  OTHER OBSERVATIONS NORTHEAST NORTH DAKOTA  *****

CITY           SKY/WX    TMP DP  RH WIND       PRES   REMARKS
WALHALLA       FAIR      64  64 100 MISG      29.94S
LANGDON        FAIR      61  57  88 SE5       29.96S
CAVALIER       FAIR      68  61  77 SW3       29.93S
GRAFTON        FAIR      64  64 100 S7        29.94S
CANDO          FAIR      64  61  88 S5        29.96R
FORT TOTTEN      N/A     69  60  73 SE6       29.95S
ROLLA          CLOUDY    64  64 100 NW3       29.97S
RUGBY          NOT AVBL
 ***** THE ABOVE OBSERVATIONS ARE NON NWS ARE NOT QUALITY
        CONTROLLED AND MAY MIS-REPORT RAIN FOR SNOW...
$$

 *****  OTHER OBSERVATIONS SOUTHEAST NORTH DAKOTA *****

CITY           SKY/WX    TMP DP  RH WIND       PRES   REMARKS
COOPERSTOWN    NOT AVBL
VALLEY CITY    MOCLDY    64  61  88 S8        29.98S
OAKES            N/A     61  61 100 SE7       29.98S
GWINNER          N/A     64  64 100 SE6       29.98S
SHEYENNE NWR     N/A     63  57  82 S3        29.95S
BUFFALO        NOT AVBL
WYNDMERE       NOT AVBL
 ***** THE ABOVE OBSERVATIONS ARE NON NWS ARE NOT QUALITY
       CONTROLLED AND MAY MIS-REPORT RAIN FOR SNOW...
$$

  *****  WEATHER ACROSS NORTHERN MINNESOTA  *****

CITY           SKY/WX    TMP DP  RH WIND       PRES   REMARKS
FLAG ISLAND    CLEAR     72  61  68 W5        29.94S
WARROAD        CLEAR     63  59  88 CALM      29.97R
ROSEAU         CLEAR     63  57  82 S3        29.96S
HALLOCK        CLEAR     64  61  88 S5        29.93S
THF RVR FALLS  PTCLDY    64  59  82 S6        29.98R
HALSTAD        NOT AVBL
FOSSTON        PTCLDY    57  55  94 CALM      30.00S
BAUDETTE       PTCLDY    63  60  90 CALM      29.96R
WASKISH        CLEAR     61  57  88 CALM      29.97S
CROOKSTON      CLEAR     64  61  88 S7        29.97S
$$
  *****  WEATHER ACROSS CENTRAL AND WEST MINNESOTA  *****

CITY           SKY/WX    TMP DP  RH WIND       PRES   REMARKS
BEMIDJI        MOCLDY    68  62  80 SW6       29.99S
PARK RAPIDS    CLOUDY    65  57  75 SW5       30.00S
WADENA           N/A     61  55  82 CALM      30.01S
DETROIT LAKES  CLEAR     63  55  77 CALM      30.02S
MOORHEAD       CLEAR     64  57  77 S7        29.99S
FERGUS FALLS   CLEAR     63  55  77 SE5       30.00S
ELBOW LAKE     FAIR      62  55  80 SE7       30.01S
MORRIS MN      CLEAR     59  55  88 SE3       30.00S
STAPLES        MOCLDY    59  55  88 S3        30.01F
WHEATON        CLEAR     55  54  94 SE6       30.02R
$$
  *****  WEATHER ELSEWHERE ACROSS MINNESOTA  *****

CITY           SKY/WX    TMP DP  RH WIND       PRES   REMARKS
DULUTH         PTCLDY    59  50  72 SE3       30.02R
INTRNTL FALLS  PTCLDY    57  55  93 SE3       29.97R
ELY            CLEAR     57  54  88 CALM      30.01S
CLOQUET        CLEAR     57  54  88 CALM      30.02S
BRAINERD       MOCLDY    62  55  77 S5        30.01S
HIBBING        PTCLDY    57  56  96 CALM      30.00R
ALEXANDRIA     CLEAR     62  55  77 SE6       30.03R
SAINT CLOUD    CLEAR     57  54  89 CALM      30.01S
MINNEAPOLIS    PTCLDY    64  53  67 CALM      30.01F
$$

  *****  WEATHER ACROSS SOUTH DAKOTA  *****

CITY           SKY/WX    TMP DP  RH WIND       PRES   REMARKS
SIOUX FALLS    PTCLDY    64  55  72 E7        29.98R
BROOKINGS      CLEAR     63  54  72 E8        30.01S
WATERTOWN      PTCLDY    63  53  70 SE5       29.99R
HURON          PTCLDY    67  64  90 E6        29.95R
SISSETON         N/A     61  57  87 S6        29.98R
ABERDEEN       PTCLDY    66  61  84 SE7       29.97R
MITCHELL       PTCLDY    68  66  93 E6        29.96R
PIERRE         MOCLDY    69  65  86 E5        29.94R
MOBRIDGE       MOCLDY    72  68  87 E9        29.95R
RAPID CITY     PTCLDY    68  64  87 E8        30.02R
$$

  *****  SOME WEATHER IN NEARBY STATES *****

CITY           SKY/WX    TMP DP  RH WIND       PRES   REMARKS
GLASGOW MT     PTCLDY    65  51  60 E3        30.04R
GREAT FALLS MT PTCLDY    71  52  50 N9        30.15R
CHEYENNE WY    MOCLDY    60  56  86 W8        30.21F
SCOTTSBLUFF NE CLOUDY    68  66  93 SE6       30.05S
OMAHA NE       PTCLDY    72  66  81 E5        29.92R
DES MOINES IA  MOCLDY    67  57  70 E9        29.95R
DAVENPORT IA   CLOUDY    63  55  75 NE7       29.97S
CHICAGO IL     MOCLDY    56  50  80 NE9       30.00S
EAU CLAIRE WI  CLEAR     56  52  86 CALM      30.01R
LA CROSSE WI   CLEAR     57  54  89 CALM      30.01S
$$

  *****  SOME NATIONAL WEATHER *****

CITY           SKY/WX    TMP DP  RH WIND       PRES   REMARKS
LA GUARDIA NY  CLOUDY    78  58  49 W12G20    29.86R
RALEIGH NC     CLOUDY    76  68  76 SW7       29.95F
ATLANTA GA     CLOUDY    69  66  90 S5        30.06F
NEW ORLEANS LA CLOUDY    77  73  87 S6        30.09S
OKLAHOMA CITY  PTCLDY    81  69  67 S12       29.89R
ALBUQUERQUE NM LGT RAIN  81  52  36 N17G36    30.13R
SALT LAKE CITY MOCLDY    88  55  32 NE5       29.99R
LOS ANGELES CA PTCLDY    67  63  87 W10       29.94S
BOISE ID       PTCLDY    91  40  16 N5        29.90R
SEATTLE WA     CLEAR     80  56  43 N10       29.96S
$$

*** WEATHER ACROSS MANITOBA...SASKATCHEWAN AND ONTARIO ***
                ***ONTARIO***

CITY           SKY/WX    TMP DP  RH WIND       PRES   REMARKS
GERALDTON      CLEAR     50  48  93 SW7       29.98F
THUNDER BAY    CLOUDY    55  54  94 W3        29.99S
SIOUX LOOKOUT  CLOUDY    55  55 100 SE3       29.97R
TORONTO        PTCLDY    61  54  77 NW9       29.93R
BIG TROUT LK   CLEAR     52  48  87 CALM      29.93R
PICKLE LAKE    NOT AVBL
DRYDEN         CLOUDY    66  59  77 S5        29.96S
KENORA         CLOUDY    68  57  68 SW5       29.96S
$$
                *** MANITOBA***

CITY           SKY/WX    TMP DP  RH WIND       PRES   REMARKS
BRANDON        MOCLDY    63  61  94 W2        29.94R
DAUPHIN        CLEAR     64  59  82 SW6       29.90S
ISLAND LAKE    PTCLDY    66  59  77 CALM      29.89S
PILOT MOUND      N/A     61  55  82 S6          N/A
THE PAS        LGT RAIN  64  61  88 CALM      29.91R SMOKE
THOMPSON       MOCLDY    61  52  72 CALM      29.87S
WINNIPEG       PTCLDY    68  61  77 S5        29.93R
LYNN LAKE      MOCLDY    63  57  82 S6        29.87S
CHURCHILL      MOCLDY    64  50  59 S9        29.77F
GILLAM         MOCLDY    64  48  55 S6        29.86S
$$
                ***SASKATCHEWAN***

CITY           SKY/WX    TMP DP  RH WIND       PRES   REMARKS
ESTEVAN        CLOUDY    64  63  94 S2        29.97R SMOKE
KINDERSLEY     MOCLDY    64  61  88 N5        30.04R
LLOYDMINSTER   PTCLDY    63  59  88 NW8       30.04R
PRINCE ALBERT  SMOKE     64  63  94 NE3       29.94R VSB 1
REGINA         MOCLDY    66  63  88 N3        29.98R


USA.gov is the U.S. government's official web portal to all federal, state and local government web resources and services.